User: anonymous   Login
Location: Unspecified
(0.0000°N, 0.0000°E)
Time: 09:39:04
(UTC+00:00)
Language:

deb Explorer IX - Orbit

View from above orbital plane
View from above orbital plane
View from above satellite
View from above satellite

Ground track
Ground track

The orbit data is extracted from the following two-line orbital elements,

1 00085U 61004C   16342.38194947  .00005174  00000-0  11886-2 0  9998
2 00085  38.7752  93.7948 0397188 222.3146 134.6312 14.16738850748061
Epoch (UTC): 07 December 2016 09:10:00
Eccentricity: 0.0397188
inclination: 38.7752°
perigee height: 550 km
apogee height: 1123 km
right ascension of ascending node: 93.7948°
argument of perigee: 222.3146°
revolutions per day: 14.16738850
mean anomaly at epoch: 134.6312°
orbit number at epoch: 74806

The dashed part of the orbit path shows where the satellite is in the earth's shadow,  

DLR